VA2EYZ-13 Weather Reports


time (UTC)temp
C
wind
direction
speed
KPH
gust
KPH
rain 1hr
cm
rain 24hr
cm
rain mn
cm
humidity
%
barometer
mb
20260510104844 10 0.0 0.0 0.00 0.00 0.00 88 1008.0
20260510102003 10 0.0 0.0 0.00 0.00 0.00 88 1007.0
20260510101458 10 0.0 0.0 0.00 0.00 0.00 88 1007.5
20260510100353 10 0.0 0.0 0.00 0.00 0.00 88 1007.0
20260510093822 10 0.0 0.0 0.00 0.00 0.00 89 1007.0
20260510091628 10 0.0 0.0 0.00 0.00 0.00 89 1006.8
20260510084419 10 0.0 0.0 0.00 0.00 0.00 91 1006.0
20260510080353 10 0.0 0.0 0.00 0.00 0.00 91 1006.0
20260510074820 10 0.0 0.0 0.00 0.00 0.00 91 1006.0
20260510073319 10 0.0 0.0 0.00 0.00 0.00 91 1006.2
20260510070227 10 0.0 0.0 0.00 0.00 0.00 91 1006.0
20260510064854 10 0.0 0.0 0.00 0.00 0.00 91 1005.8
20260510063407 10 0.0 0.0 0.00 0.00 0.00 92 1005.8
20260510060353 10 0.0 0.0 0.00 0.00 0.00 92 1005.0
20260510054229 11 0.0 0.0 0.00 0.00 0.00 82 1006.1
20260510051353 11 0.0 0.0 0.00 0.00 0.00 82 1005.0
20260510050432 11 0.0 0.0 0.00 0.00 0.00 81 1005.0
20260510044538 10 0.0 0.0 0.00 0.00 0.00 79 1005.9
20260510042806 10 0.0 0.0 0.00 0.00 0.00 79 1006.0
20260510041427 10 0.0 0.0 0.00 0.00 0.00 79 1005.0
20260510040154 10 0.0 0.0 0.00 0.00 0.00 79 1005.7
20260510035039 11 0.0 0.0 0.00 0.00 0.00 80 1005.7
20260510022528 11 0.0 0.0 0.00 0.00 0.00 81 1006.0
20260510020155 11 0.0 0.0 0.00 0.00 0.00 81 1006.0
20260510014308 11 0.0 0.0 0.00 0.00 0.00 75 1006.0
20260510013724 11 0.0 0.0 0.00 0.00 0.00 75 1007.0
20260510010752 11 0.0 0.0 0.00 0.00 0.00 75 1007.0
20260510002705 12 0.0 0.0 0.00 0.00 0.00 69 1006.0
20260510001303 12 0.0 0.0 0.00 0.00 0.00 69 1006.8
20260510000154 12 0.0 0.0 0.00 0.00 0.00 69 1006.0
20260509232944 13 0.0 0.0 0.00 0.00 0.00 60 1006.0
20260509231311 13 0.0 0.0 0.00 0.00 0.00 60 1006.5
20260509225709 15 0.0 0.0 0.00 0.00 0.00 55 1006.0
20260509221510 15 0.0 0.0 0.00 0.00 0.00 55 1007.0
20260509220155 15 0.0 0.0 0.00 0.00 0.00 55 1006.0
20260509212001 16 0.0 0.0 0.00 0.00 0.00 46 1007.0
20260509210155 16 0.0 0.0 0.00 0.00 0.00 46 1007.0
20260509203851 17 0.0 0.0 0.00 0.00 0.00 37 1007.0
20260509202553 17 0.0 0.0 0.00 0.00 0.00 37 1007.2
20260509200154 17 0.0 0.0 0.00 0.00 0.00 37 1007.0
20260509194211 18 0.0 0.0 0.00 0.00 0.00 24 1007.0
20260509192911 18 0.0 0.0 0.00 0.00 0.00 24 1007.8
20260509184853 18 0.0 0.0 0.00 0.00 0.00 24 1007.0
20260509182909 18 0.0 0.0 0.00 0.00 0.00 24 1008.3
20260509180155 18 0.0 0.0 0.00 0.00 0.00 24 1008.0
20260509174444 17 0.0 0.0 0.00 0.00 0.00 25 1008.0
20260509170153 17 0.0 0.0 0.00 0.00 0.00 25 1009.0
20260509164048 16 0.0 0.0 0.00 0.00 0.00 25 1009.0
20260509162023 16 0.0 0.0 0.00 0.00 0.00 25 1010.0
20260509161208 16 0.0 0.0 0.00 0.00 0.00 25 1009.0
20260509160153 16 0.0 0.0 0.00 0.00 0.00 25 1010.0
20260509153723 15 0.0 0.0 0.00 0.00 0.00 35 1010.0
20260509152524 15 0.0 0.0 0.00 0.00 0.00 35 1010.0
20260509150153 15 0.0 0.0 0.00 0.00 0.00 35 1011.0
20260509144324 13 0.0 0.0 0.00 0.00 0.00 38 1011.0
20260509143216 13 0.0 0.0 0.00 0.00 0.00 38 1011.2
20260509140153 13 0.0 0.0 0.00 0.00 0.00 38 1011.0
20260509133908 11 0.0 0.0 0.00 0.00 0.00 44 1011.0
20260509133404 11 0.0 0.0 0.00 0.00 0.00 44 1011.4
20260509130153 11 0.0 0.0 0.00 0.00 0.00 44 1011.0
20260509125647 8 0.0 0.0 0.00 0.00 0.00 56 1011.0
20260509124055 8 0.0 0.0 0.00 0.00 0.00 56 1011.9
20260509120934 8 0.0 0.0 0.00 0.00 0.00 56 1011.0
20260509120153 8 0.0 0.0 0.00 0.00 0.00 56 1012.0
20260509110355 6 0.0 0.0 0.00 0.00 0.00 68 1012.0